Weather History for Walterboro, SC

Change the Weather History Date:

Monday, January 20, 2014

  Actual Average Record
Temperature  
Mean Temperature 52 °F -  
Max Temperature 68 °F 57 °F 73 °F (2012)
Min Temperature 35 °F 35 °F 30 °F (2011)
Degree Days  
Heating Degree Days 14    
Growing Degree Days 2 (Base 50)    
Moisture  
Dew Point 31 °F    
Average Humidity 57    
Maximum Humidity 87    
Minimum Humidity 23    
Precipitation  
Precipitation 0.00 in - - ()
Sea Level Pressure  
Sea Level Pressure 30.00 in    
Wind  
Wind Speed 6 mph (WSW)    
Max Wind Speed 16 mph    
Max Gust Speed 23 mph    
Visibility 10 miles    
Events      
Averages and records for this station are not official NWS values.
T = Trace of Precipitation, MM = Missing Value Source: NWS Daily Summary

Daily Weather History Graph

Daily Weather History Graph

Search for Another Location

Airport:

Trip Planner

Search our weather history database for the weather conditions in past years. The results will help you decide how hot, cold, wet, or windy it might be!

Date:

Astronomy

Jan. 20, 2014 Rise Set
Actual Time 7:23 AM EST 5:43 PM EST
Civil Twilight 6:57 AM EST 6:10 PM EST
Nautical Twilight 6:27 AM EST 6:40 PM EST
Astronomical Twilight 5:57 AM EST 7:09 PM EST
Moon 10:00 PM EST (1/20) 9:38 AM EST (1/20)
Length of Visible Light 11h 12m
Length of Day
10h 19m
Waning Gibbous, 83% of the Moon is Illuminated
Jan 20
Waning Gibbous
Jan 24
Last Quarter
Jan 30
New
Feb 6
First Quarter
Feb 14
Full

Hourly Weather History & Observations

Time (EST) Temp. Windchill Dew Point Humidity Pressure Visibility Wind Dir Wind Speed Gust Speed Precip Events Conditions
12:15 AM 37.4 °F 34.9 °F 32.0 °F 81% 30.05 in 10.0 mi WSW 3.5 mph - N/A   Clear
12:35 AM 37.4 °F 34.9 °F 32.0 °F 81% 30.05 in 10.0 mi WSW 3.5 mph - N/A   Clear
12:55 AM 37.4 °F 33.8 °F 32.0 °F 81% 30.05 in 10.0 mi SW 4.6 mph - N/A   Clear
1:15 AM 37.4 °F 33.8 °F 32.0 °F 81% 30.05 in 10.0 mi SW 4.6 mph - N/A   Clear
1:35 AM 37.4 °F 33.8 °F 32.0 °F 81% 30.05 in 10.0 mi WSW 4.6 mph - N/A   Clear
1:55 AM 37.4 °F 33.8 °F 32.0 °F 81% 30.04 in 10.0 mi SW 4.6 mph - N/A   Clear
2:15 AM 39.2 °F 35.9 °F 32.0 °F 75% 30.05 in 10.0 mi WSW 4.6 mph - N/A   Clear
2:35 AM 37.4 °F 33.8 °F 32.0 °F 81% 30.05 in 10.0 mi WSW 4.6 mph - N/A   Clear
2:55 AM 37.4 °F 33.8 °F 32.0 °F 81% 30.04 in 10.0 mi SW 4.6 mph - N/A   Clear
3:15 AM 37.4 °F 34.9 °F 32.0 °F 81% 30.05 in 10.0 mi WSW 3.5 mph - N/A   Clear
3:35 AM 35.6 °F 31.7 °F 32.0 °F 87% 30.04 in 10.0 mi SW 4.6 mph - N/A   Clear
3:55 AM 35.6 °F 31.7 °F 32.0 °F 87% 30.05 in 10.0 mi WSW 4.6 mph - N/A   Clear
4:15 AM 35.6 °F - 32.0 °F 87% 30.05 in 10.0 mi Calm Calm - N/A   Clear
4:35 AM 35.6 °F 32.8 °F 32.0 °F 87% 30.05 in 10.0 mi WSW 3.5 mph - N/A   Clear
4:55 AM 35.6 °F 32.8 °F 32.0 °F 87% 30.04 in 10.0 mi WSW 3.5 mph - N/A   Clear
5:15 AM 35.6 °F 30.7 °F 32.0 °F 87% 30.04 in 10.0 mi WSW 5.8 mph - N/A   Clear
5:35 AM 35.6 °F 31.7 °F 32.0 °F 87% 30.04 in 10.0 mi WSW 4.6 mph - N/A   Clear
5:55 AM 35.6 °F 31.7 °F 32.0 °F 87% 30.03 in 10.0 mi WSW 4.6 mph - N/A   Clear
6:15 AM 35.6 °F 32.8 °F 32.0 °F 87% 30.04 in 10.0 mi WSW 3.5 mph - N/A   Clear
6:35 AM 35.6 °F 32.8 °F 32.0 °F 87% 30.05 in 10.0 mi WSW 3.5 mph - N/A   Clear
6:55 AM 35.6 °F 31.7 °F 32.0 °F 87% 30.05 in 10.0 mi West 4.6 mph - N/A   Clear
7:15 AM 37.4 °F 32.8 °F 32.0 °F 81% 30.04 in 10.0 mi West 5.8 mph - N/A   Clear
7:35 AM 37.4 °F 33.8 °F 32.0 °F 81% 30.05 in 10.0 mi WSW 4.6 mph - N/A   Clear
7:55 AM 37.4 °F 32.1 °F 32.0 °F 81% 30.05 in 10.0 mi WSW 6.9 mph - N/A   Clear
8:15 AM 41.0 °F 35.8 °F 32.0 °F 70% 30.06 in 10.0 mi West 8.1 mph - N/A   Clear
8:35 AM 42.8 °F 38.0 °F 32.0 °F 66% 30.06 in 10.0 mi West 8.1 mph - N/A   Clear
8:55 AM 44.6 °F 39.7 °F 32.0 °F 61% 30.06 in 10.0 mi West 9.2 mph - N/A   Clear
9:15 AM 46.4 °F 41.9 °F 32.0 °F 57% 30.06 in 10.0 mi West 9.2 mph - N/A   Clear
9:35 AM 48.2 °F - 32.0 °F 54% 30.06 in 10.0 mi WSW 9.2 mph - N/A   Clear
9:55 AM 50.0 °F - 32.0 °F 50% 30.07 in 10.0 mi West 9.2 mph - N/A   Clear
10:15 AM 53.6 °F - 32.0 °F 44% 30.06 in 10.0 mi West 10.4 mph - N/A   Clear
10:35 AM 53.6 °F - 32.0 °F 44% 30.06 in 10.0 mi West 11.5 mph 16.1 mph N/A   Clear
10:55 AM 57.2 °F - 32.0 °F 38% 30.06 in 10.0 mi West 8.1 mph - N/A   Clear
11:15 AM 59.0 °F - 32.0 °F 36% 30.04 in 10.0 mi WSW 11.5 mph 16.1 mph N/A   Clear
11:35 AM 59.0 °F - 30.2 °F 34% 30.03 in 10.0 mi West 8.1 mph 11.5 mph N/A   Clear
11:55 AM 60.8 °F - 30.2 °F 31% 30.02 in 10.0 mi West 9.2 mph 18.4 mph N/A   Clear
12:15 PM 62.6 °F - 30.2 °F 30% 30.00 in 10.0 mi WSW 12.7 mph 18.4 mph N/A   Clear
12:35 PM 62.6 °F - 30.2 °F 30% 29.99 in 10.0 mi WSW 11.5 mph 19.6 mph N/A   Clear
12:55 PM 64.4 °F - 28.4 °F 26% 29.98 in 10.0 mi WSW 12.7 mph 17.3 mph N/A   Clear
1:15 PM 64.4 °F - 28.4 °F 26% 29.96 in 10.0 mi WSW 12.7 mph 19.6 mph N/A   Clear
1:35 PM 64.4 °F - 28.4 °F 26% 29.95 in 10.0 mi WSW 16.1 mph 20.7 mph N/A   Clear
1:55 PM 66.2 °F - 30.2 °F 26% 29.94 in 10.0 mi WSW 16.1 mph 23.0 mph N/A   Clear
2:15 PM 68.0 °F - 30.2 °F 24% 29.93 in 10.0 mi WSW 11.5 mph 18.4 mph N/A   Clear
2:35 PM 66.2 °F - 30.2 °F 26% 29.93 in 10.0 mi West 12.7 mph 21.9 mph N/A   Clear
2:55 PM 68.0 °F - 30.2 °F 24% 29.92 in 10.0 mi WSW 15.0 mph 18.4 mph N/A   Clear
3:15 PM 68.0 °F - 28.4 °F 23% 29.93 in 10.0 mi West 16.1 mph - N/A   Clear
3:35 PM 68.0 °F - 30.2 °F 24% 29.93 in 10.0 mi West 12.7 mph 17.3 mph N/A   Clear
3:55 PM 66.2 °F - 30.2 °F 26% 29.93 in 10.0 mi WSW 12.7 mph - N/A   Clear
4:15 PM 66.2 °F - 30.2 °F 26% 29.93 in 10.0 mi West 11.5 mph - N/A   Clear
4:35 PM 64.4 °F - 30.2 °F 28% 29.93 in 10.0 mi West 11.5 mph - N/A   Clear
4:55 PM 64.4 °F - 30.2 °F 28% 29.93 in 10.0 mi SW 9.2 mph - N/A   Clear
5:35 PM 60.8 °F - 30.2 °F 31% 29.94 in 10.0 mi SW 6.9 mph - N/A   Clear
5:55 PM 55.4 °F - 30.2 °F 38% 29.95 in 10.0 mi SW 6.9 mph - N/A   Clear
6:15 PM 55.4 °F - 30.2 °F 38% 29.95 in 10.0 mi SW 5.8 mph - N/A   Clear
6:55 PM 51.8 °F - 32.0 °F 47% 29.95 in 10.0 mi SSW 4.6 mph - N/A   Clear
7:35 PM 51.8 °F - 32.0 °F 47% 29.95 in 10.0 mi SSW 3.5 mph - N/A   Clear
7:55 PM 46.4 °F 44.3 °F 32.0 °F 57% 29.95 in 10.0 mi South 4.6 mph - N/A   Clear
8:15 PM 50.0 °F - 32.0 °F 50% 29.95 in 10.0 mi SSW 4.6 mph - N/A   Clear
8:55 PM 50.0 °F - 32.0 °F 50% 29.95 in 10.0 mi SSW 4.6 mph - N/A   Clear
9:15 PM 48.2 °F - 32.0 °F 54% 29.95 in 10.0 mi SSW 4.6 mph - N/A   Clear
9:35 PM 48.2 °F - 32.0 °F 54% 29.95 in 10.0 mi SSW 4.6 mph - N/A   Clear
10:15 PM 44.6 °F 43.1 °F 32.0 °F 61% 29.94 in 10.0 mi SSW 3.5 mph - N/A   Clear
10:35 PM 44.6 °F 43.1 °F 32.0 °F 61% 29.94 in 10.0 mi SSW 3.5 mph - N/A   Clear
10:55 PM 44.6 °F - 32.0 °F 61% 29.93 in 10.0 mi Calm Calm - N/A   Clear
11:15 PM 42.8 °F 40.1 °F 32.0 °F 66% 29.93 in 10.0 mi SSW 4.6 mph - N/A   Clear
11:35 PM 41.0 °F 39.0 °F 32.0 °F 70% 29.92 in 10.0 mi SSW 3.5 mph - N/A   Clear